| time (UTC) | temp C | wind direction | speed KPH | gust KPH | rain 1hr cm | rain 24hr cm | rain mn cm | humidity % | barometer mb |
| 20260505025350 | 17 | 169 | 6.4 | 17.7 | 0.00 | 0.00 | 0.00 | 75 | 999.2 |
| 20260505024351 | 17 | 185 | 6.4 | 22.5 | 0.00 | 0.00 | 0.00 | 75 | 999.2 |
| 20260505023351 | 17 | 234 | 6.4 | 22.5 | 0.00 | 0.00 | 0.00 | 75 | 999.1 |
| 20260505022350 | 16 | 179 | 6.4 | 19.3 | 0.00 | 0.00 | 0.00 | 76 | 999.2 |
| 20260505021351 | 16 | 168 | 3.2 | 11.3 | 0.00 | 0.00 | 0.00 | 77 | 999.1 |
| 20260505020355 | 16 | 155 | 6.4 | 17.7 | 0.00 | 0.00 | 0.00 | 77 | 999.1 |
| 20260505015350 | 16 | 163 | 6.4 | 17.7 | 0.00 | 0.00 | 0.00 | 76 | 999.1 |
| 20260505014349 | 16 | 172 | 6.4 | 17.7 | 0.00 | 0.00 | 0.00 | 76 | 999.2 |
| 20260505013351 | 16 | 176 | 6.4 | 19.3 | 0.00 | 0.00 | 0.00 | 77 | 999.0 |
| 20260505012349 | 16 | 156 | 6.4 | 14.5 | 0.00 | 0.00 | 0.00 | 78 | 998.8 |
| 20260505011349 | 16 | 153 | 6.4 | 17.7 | 0.00 | 0.00 | 0.00 | 77 | 998.6 |
| 20260505010350 | 16 | 185 | 6.4 | 17.7 | 0.00 | 0.00 | 0.00 | 75 | 998.6 |
| 20260505005354 | 17 | 194 | 8.0 | 25.7 | 0.00 | 0.00 | 0.00 | 73 | 998.6 |
| 20260505004354 | 18 | 237 | 11.3 | 29.0 | 0.00 | 0.00 | 0.00 | 68 | 998.6 |
| 20260505003349 | 18 | 165 | 11.3 | 37.0 | 0.00 | 0.00 | 0.00 | 63 | 998.3 |
| 20260505002349 | 20 | 194 | 11.3 | 35.4 | 0.00 | 0.00 | 0.00 | 59 | 998.3 |
| 20260505001349 | 21 | 247 | 6.4 | 37.0 | 0.00 | 0.00 | 0.00 | 55 | 998.4 |
| 20260505000351 | 21 | 168 | 6.4 | 17.7 | 0.00 | 0.00 | 0.00 | 53 | 997.9 |
| 20260504235348 | 22 | 189 | 3.2 | 17.7 | 0.00 | 0.00 | 0.00 | 51 | 997.9 |
| 20260504234351 | 22 | 196 | 3.2 | 17.7 | 0.00 | 0.00 | 0.00 | 47 | 997.9 |
| 20260504233351 | 22 | 227 | 6.4 | 14.5 | 0.00 | 0.00 | 0.00 | 46 | 998.0 |
| 20260504232352 | 22 | 154 | 6.4 | 17.7 | 0.00 | 0.00 | 0.00 | 46 | 998.1 |
| 20260504231345 | 22 | 238 | 8.0 | 25.7 | 0.00 | 0.00 | 0.00 | 46 | 998.0 |
| 20260504230346 | 22 | 175 | 8.0 | 29.0 | 0.00 | 0.00 | 0.00 | 44 | 998.0 |
| 20260504225342 | 23 | 225 | 8.0 | 25.7 | 0.00 | 0.00 | 0.00 | 44 | 998.0 |
| 20260504224343 | 23 | 252 | 6.4 | 19.3 | 0.00 | 0.00 | 0.00 | 42 | 998.1 |
| 20260504223347 | 23 | 312 | 6.4 | 19.3 | 0.00 | 0.00 | 0.00 | 41 | 998.4 |
| 20260504222347 | 23 | 273 | 8.0 | 22.5 | 0.00 | 0.00 | 0.00 | 41 | 998.5 |
| 20260504221344 | 23 | 213 | 6.4 | 14.5 | 0.00 | 0.00 | 0.00 | 39 | 998.6 |
| 20260504220343 | 23 | 242 | 11.3 | 29.0 | 0.00 | 0.00 | 0.00 | 40 | 999.0 |
| 20260504215355 | 23 | 247 | 11.3 | 32.2 | 0.00 | 0.00 | 0.00 | 39 | 998.8 |
| 20260504214350 | 23 | 244 | 11.3 | 35.4 | 0.00 | 0.00 | 0.00 | 38 | 998.7 |
| 20260504213350 | 23 | 264 | 11.3 | 37.0 | 0.00 | 0.00 | 0.00 | 38 | 998.8 |
| 20260504212349 | 23 | 142 | 11.3 | 46.7 | 0.00 | 0.00 | 0.00 | 37 | 999.0 |
| 20260504211344 | 23 | 178 | 11.3 | 35.4 | 0.00 | 0.00 | 0.00 | 36 | 999.1 |
| 20260504210402 | 23 | 148 | 8.0 | 25.7 | 0.00 | 0.00 | 0.00 | 36 | 999.1 |
| 20260504205341 | 23 | 244 | 8.0 | 29.0 | 0.00 | 0.00 | 0.00 | 34 | 999.1 |
| 20260504204340 | 23 | 217 | 11.3 | 37.0 | 0.00 | 0.00 | 0.00 | 33 | 999.2 |
| 20260504203339 | 23 | 150 | 8.0 | 37.0 | 0.00 | 0.00 | 0.00 | 32 | 999.3 |
| 20260504202340 | 23 | 243 | 8.0 | 35.4 | 0.00 | 0.00 | 0.00 | 31 | 999.2 |
| 20260504201340 | 23 | 193 | 8.0 | 29.0 | 0.00 | 0.00 | 0.00 | 31 | 999.3 |
| 20260504200339 | 23 | 259 | 6.4 | 29.0 | 0.00 | 0.00 | 0.00 | 30 | 999.3 |
| 20260504195338 | 23 | 48 | 11.3 | 32.2 | 0.00 | 0.00 | 0.00 | 31 | 999.5 |
| 20260504194341 | 23 | 174 | 8.0 | 19.3 | 0.00 | 0.00 | 0.00 | 30 | 999.5 |
| 20260504193334 | 23 | 262 | 11.3 | 40.2 | 0.00 | 0.00 | 0.00 | 27 | 999.5 |
| 20260504192335 | 23 | 271 | 8.0 | 35.4 | 0.00 | 0.00 | 0.00 | 27 | 999.7 |
| 20260504191336 | 23 | 330 | 6.4 | 14.5 | 0.00 | 0.00 | 0.00 | 27 | 999.7 |
| 20260504190332 | 23 | 248 | 8.0 | 35.4 | 0.00 | 0.00 | 0.00 | 27 | 999.9 |
| 20260504185332 | 23 | 148 | 8.0 | 37.0 | 0.00 | 0.00 | 0.00 | 28 | 999.9 |
| 20260504184333 | 23 | 230 | 6.4 | 25.7 | 0.00 | 0.00 | 0.00 | 29 | 1000.1 |
| 20260504183332 | 23 | 253 | 8.0 | 29.0 | 0.00 | 0.00 | 0.00 | 30 | 1000.2 |
| 20260504182331 | 23 | 235 | 11.3 | 29.0 | 0.00 | 0.00 | 0.00 | 33 | 1000.1 |
| 20260504181330 | 23 | 257 | 11.3 | 35.4 | 0.00 | 0.00 | 0.00 | 33 | 1000.2 |
| 20260504180331 | 23 | 205 | 8.0 | 29.0 | 0.00 | 0.00 | 0.00 | 33 | 1000.5 |
| 20260504175332 | 22 | 269 | 8.0 | 32.2 | 0.00 | 0.00 | 0.00 | 34 | 1000.4 |
| 20260504174329 | 22 | 155 | 11.3 | 35.4 | 0.00 | 0.00 | 0.00 | 36 | 1000.7 |
| 20260504173332 | 22 | 190 | 8.0 | 29.0 | 0.00 | 0.00 | 0.00 | 37 | 1000.9 |
| 20260504172333 | 22 | 152 | 8.0 | 32.2 | 0.00 | 0.00 | 0.00 | 37 | 1000.9 |
| 20260504171332 | 22 | 254 | 8.0 | 25.7 | 0.00 | 0.00 | 0.00 | 36 | 1001.2 |
| 20260504170335 | 22 | 321 | 6.4 | 25.7 | 0.00 | 0.00 | 0.00 | 36 | 1001.3 |
| 20260504160339 | 20 | 170 | 6.4 | 19.3 | 0.00 | 0.00 | 0.00 | 48 | 1002.3 |
| 20260504150332 | 17 | 196 | 6.4 | 25.7 | 0.00 | 0.00 | 0.00 | 57 | 1002.8 |
| 20260504141332 | 15 | 252 | 6.4 | 14.5 | 0.00 | 0.00 | 0.00 | 63 | 1003.0 |
| 20260504140328 | 15 | 212 | 6.4 | 17.7 | 0.00 | 0.00 | 0.00 | 64 | 1003.1 |
| 20260504130324 | 12 | 240 | 6.4 | 22.5 | 0.00 | 0.00 | 0.00 | 71 | 1003.6 |
| 20260504120317 | 10 | 207 | 6.4 | 17.7 | 0.00 | 0.00 | 0.00 | 76 | 1003.7 |
| 20260504110313 | 8 | 166 | 3.2 | 8.0 | 0.00 | 0.00 | 0.00 | 80 | 1003.6 |
| 20260504100313 | 8 | 182 | 3.2 | 6.4 | 0.00 | 0.00 | 0.00 | 78 | 1003.6 |
| 20260504081308 | 9 | 182 | 3.2 | 22.5 | 0.00 | 0.00 | 0.00 | 74 | 1004.3 |
| 20260504080308 | 9 | 167 | 3.2 | 17.7 | 0.00 | 0.00 | 0.00 | 74 | 1004.3 |
| 20260504070300 | 9 | 165 | 3.2 | 8.0 | 0.00 | 0.00 | 0.00 | 72 | 1005.1 |
| 20260504050246 | 10 | 174 | 8.0 | 19.3 | 0.00 | 0.00 | 0.00 | 68 | 1006.5 |
| 20260504045249 | 10 | 186 | 6.4 | 17.7 | 0.00 | 0.00 | 0.00 | 67 | 1006.7 |
| 20260504044248 | 10 | 155 | 8.0 | 19.3 | 0.00 | 0.00 | 0.00 | 67 | 1006.8 |
| 20260504043246 | 10 | 175 | 6.4 | 19.3 | 0.00 | 0.00 | 0.00 | 66 | 1006.7 |
| 20260504042249 | 10 | 240 | 6.4 | 17.7 | 0.00 | 0.00 | 0.00 | 66 | 1006.8 |
| 20260504041247 | 10 | 159 | 11.3 | 32.2 | 0.00 | 0.00 | 0.00 | 66 | 1007.0 |
| 20260504040246 | 10 | 173 | 8.0 | 22.5 | 0.00 | 0.00 | 0.00 | 66 | 1007.0 |
| 20260504035255 | 10 | 224 | 8.0 | 19.3 | 0.00 | 0.00 | 0.00 | 65 | 1007.1 |
| 20260504034252 | 10 | 155 | 11.3 | 29.0 | 0.00 | 0.00 | 0.00 | 65 | 1007.1 |
| 20260504033252 | 11 | 205 | 8.0 | 22.5 | 0.00 | 0.00 | 0.00 | 65 | 1007.2 |
| 20260504032300 | 11 | 171 | 8.0 | 22.5 | 0.00 | 0.00 | 0.00 | 65 | 1007.2 |
| 20260504031254 | 11 | 156 | 8.0 | 29.0 | 0.00 | 0.00 | 0.00 | 65 | 1007.3 |
| 20260504030253 | 11 | 161 | 8.0 | 22.5 | 0.00 | 0.00 | 0.00 | 64 | 1007.4 |